Tracking 25195 objects as of 20-Jan-2022
HD Live streaming from Space Station
objects crossing your sky now

DELTA 1 DEB (YO)

Track DELTA 1 DEB (YO) now!
10-day predictions


NORAD ID: 167
Int'l Code: 1961-017D
Perigee: 756.6 km
Apogee: 889.2 km
Inclination: 47.8 °
Period: 101.2 minutes
Semi major axis: 7193 km
RCS: 0.047 m2 (small)
Launch date: July 12, 1961
Source: United States (US)
Launch site: AIR FORCE EASTERN TEST RANGE (AFETR)

Note: This is SATELLITE DEBRIS
aabbcc
Your satellite tracking list
Your tracking list is empty




NASA's NSSDC Master Catalog

Two Line Element Set (TLE):
1 00167U 61017D   22020.42538080 -.00000248  00000-0 -40100-4 0  9990
2 00167  47.8454 277.1219 0092176   5.7959 354.3969 14.22834951135497
Source of the keplerian elements: AFSPC